Weather History for KBTV - February, 2013

Change the Weather History Date:

Tuesday, February 19, 2013

  Actual Average Record
Temperature  
Mean Temperature 29 °F 22 °F  
Max Temperature 44 °F 32 °F 62 °F (1981)
Min Temperature 13 °F 13 °F -23 °F (1944)
Degree Days  
Heating Degree Days 36 43  
Month to date heating degree days 837 846  
Since 1 July heating degree days 4573 5040  
Cooling Degree Days 0 0  
Month to date cooling degree days 0 0  
Year to date cooling degree days 0 0  
Moisture  
Dew Point 18 °F    
Average Humidity 59    
Maximum Humidity 89    
Minimum Humidity 29    
Precipitation  
Precipitation 0.17 in 0.06 in 0.64 in (1931)
Month to date precipitation 0.82 1.18  
Year to date precipitation 1.93 3.24  
Snow  
Snow 1.30 in 0.50 in 8.50 in (1931)
Month to date snowfall 13.3 11.3  
Since 1 July snowfall 62.4 55.7  
Snow Depth 1.00 in    
Sea Level Pressure  
Sea Level Pressure 29.80 in    
Wind  
Wind Speed 7 mph (South)    
Max Wind Speed 21 mph    
Max Gust Speed 30 mph    
Visibility 7 miles    
Events Fog , Rain , Snow    
T = Trace of Precipitation, MM = Missing Value Source: NWS Daily Summary

Daily Weather History Graph

Daily Weather History Graph

Search for Another Location

Airport or City:

Trip Planner

Search our weather history database for the weather conditions in past years. The results will help you decide how hot, cold, wet, or windy it might be!

Date:

Astronomy

Feb. 19, 2013 Rise Set
Actual Time 6:46 AM EST 5:27 PM EST
Civil Twilight 6:16 AM EST 5:57 PM EST
Nautical Twilight 5:42 AM EST 6:30 PM EST
Astronomical Twilight 5:08 AM EST 7:04 PM EST
Moon 11:49 AM EST (2/19) 2:22 AM EST (2/19)
Length of Visible Light 11h 40m
Length of Day
10h 41m
Waxing Gibbous, 67% of the Moon is Illuminated
Feb 19
Waxing Gibbous
Feb 25
Full
Mar 4
Last Quarter
Mar 11
New
Mar 19
First Quarter

Hourly Weather History & Observations

Time (EST) Temp. Windchill Dew Point Humidity Pressure Visibility Wind Dir Wind Speed Gust Speed Precip Events Conditions
12:54 AM 12.9 °F - 1.0 °F 59% 30.14 in 10.0 mi Calm Calm - N/A   Clear
1:54 AM 12.9 °F - 3.0 °F 65% 30.15 in 10.0 mi Calm Calm - N/A   Clear
2:54 AM 15.1 °F - 3.9 °F 61% 30.14 in 10.0 mi Calm Calm - N/A   Overcast
3:54 AM 18.0 °F - 3.9 °F 54% 30.12 in 10.0 mi Calm Calm - N/A   Overcast
4:54 AM 19.9 °F 13.4 °F 1.9 °F 46% 30.09 in 10.0 mi ESE 4.6 mph - N/A   Overcast
5:54 AM 19.0 °F 13.9 °F 1.0 °F 46% 30.05 in 10.0 mi SE 3.5 mph - N/A   Scattered Clouds
6:54 AM 19.0 °F 12.3 °F 1.0 °F 46% 30.02 in 10.0 mi ESE 4.6 mph - N/A   Partly Cloudy
7:54 AM 21.9 °F 14.5 °F 3.9 °F 46% 29.99 in 10.0 mi SE 5.8 mph - N/A   Scattered Clouds
8:54 AM 30.0 °F 21.7 °F 5.0 °F 35% 29.97 in 10.0 mi South 9.2 mph - N/A   Scattered Clouds
9:54 AM 33.1 °F 24.9 °F 5.0 °F 31% 29.92 in 10.0 mi SE 10.4 mph - N/A   Scattered Clouds
10:54 AM 37.0 °F 28.1 °F 8.1 °F 30% 29.88 in 10.0 mi South 15.0 mph 20.7 mph N/A   Scattered Clouds
11:54 AM 39.0 °F 31.0 °F 10.0 °F 30% 29.83 in 10.0 mi South 13.8 mph 21.9 mph N/A   Scattered Clouds
1:54 PM 41.0 °F 38.0 °F 14.0 °F 33% 29.72 in 10.0 mi South 4.6 mph - N/A   Overcast
2:54 PM 42.1 °F 37.1 °F 15.1 °F 34% 29.70 in 10.0 mi South 8.1 mph - N/A   Scattered Clouds
3:54 PM 42.1 °F 33.9 °F 19.9 °F 41% 29.69 in 10.0 mi South 17.3 mph 25.3 mph N/A   Overcast
4:54 PM 39.9 °F 31.1 °F 21.0 °F 47% 29.69 in 10.0 mi South 17.3 mph 25.3 mph N/A   Overcast
5:54 PM 36.0 °F 27.5 °F 28.9 °F 76% 29.69 in 10.0 mi South 12.7 mph - N/A   Overcast
7:36 PM 33.8 °F 29.6 °F 30.2 °F 87% 29.65 in 2.5 mi South 4.6 mph - N/A Rain , Snow Light Rain
7:40 PM 33.8 °F 28.6 °F 30.2 °F 87% 29.65 in 1.5 mi South 5.8 mph - 0.00 in Rain , Snow Light Rain
7:54 PM 34.0 °F 31.0 °F 30.9 °F 89% 29.65 in 1.5 mi South 3.5 mph - 0.01 in Rain , Snow Light Rain
8:54 PM 33.1 °F - 30.9 °F 92% 29.63 in 1.8 mi Calm Calm - 0.03 in Snow Light Snow
9:54 PM 33.1 °F - 30.9 °F 92% 29.62 in 1.8 mi Calm Calm - 0.02 in Snow Light Snow
10:36 PM 33.8 °F - 30.2 °F 87% 29.60 in 1.0 mi Calm Calm - 0.02 in Snow Light Snow
10:42 PM 33.8 °F - 30.2 °F 87% 29.60 in 0.8 mi Calm Calm - 0.02 in Snow Light Snow
10:50 PM 33.8 °F - 30.2 °F 87% 29.60 in 0.8 mi Calm Calm - 0.03 in Snow Light Snow
10:54 PM 33.1 °F - 30.9 °F 92% 29.61 in 0.5 mi Calm Calm - 0.03 in Fog , Snow Snow
11:10 PM 33.8 °F 26.4 °F 30.2 °F 87% 29.61 in 0.5 mi WNW 9.2 mph - 0.02 in Fog , Snow Snow
11:39 PM 32.0 °F 23.6 °F 30.2 °F 93% 29.62 in 1.0 mi WNW 10.4 mph 21.9 mph 0.07 in Snow Light Snow
11:44 PM 32.0 °F 23.6 °F 30.2 °F 93% 29.62 in 1.0 mi NW 10.4 mph 21.9 mph 0.08 in Snow Light Snow
11:54 PM 32.0 °F 23.6 °F 30.0 °F 92% 29.63 in 2.0 mi NW 10.4 mph - 0.08 in Snow Light Snow